[[{"header":{"parameterUnit":"m.s-1","parameterCategory":1,"la1":30.2991,"la2":30.254,"lo1":-89.0895,"lo2":-89.0444,"dy":0.0017,"dx":0.0017,"nx":28,"ny":28,"refTime":"2023-10-17T03:00:00:Z","depth":0,"parameterNumber":2,"parameterNumberName":"U-component_of_WINDS"},"data":[0,0,0,0,0,0,0,0,0,0,0,0,0,0,0,0,0,0,0,0,0,0,0,0,0,0,0,0,0,0,0,0,0,0,0,0,0,0,0,0,0,0,0,0,0,0,0,0,0,0,0,0,0,0,0,0,0,0,0.1854,0.1852,0,0.1682,0.168,0.1678,0.1552,0.1551,0.155,0.1549,0.1369,0.1366,0.1362,0,0,0,0,0,0,0,0,0,0,0,0,0,0.2068,0.2064,0.1854,0.1852,0.1849,0.1682,0.168,0.1678,0.1552,0.1551,0.1549,0.1548,0.1371,0.1366,0.1362,0,0,0,0,0,0,0,0,0,0,0,0,0,0.1943,0.2063,0.1854,0.1767,0.1757,0.1683,0.168,0.1677,0.1552,0.1551,0.1549,0.1548,0.1372,0.1367,0.1361,0.1359,0,0,0.1344,0.1341,0,0,0,0,0,0,0,0,0.1951,0.1936,0.1782,0.1773,0.1762,0.1637,0.169,0.157,0.1553,0.163,0.1549,0.1547,0.1459,0.1446,0.1418,0.135,0.1343,0.1343,0.134,0.1337,0.1336,0,0,0,0,0,0,0,0.1959,0.1942,0.1786,0.178,0.1767,0.1735,0.1715,0.1666,0.1556,0.1623,0.1614,0.1595,0.1454,0.1423,0.1413,0.134,0.1343,0.1338,0.1335,0.1333,0.126,0.1261,0,0,0,0,0,0,0.1982,0.195,0.1791,0.178,0.1854,0.1732,0.171,0.1679,0.1556,0.1536,0.1597,0.159,0.1434,0.1419,0.1406,0.1393,0.1337,0.1332,0.1329,0.1258,0.126,0.1262,0,0,0,0,0,0,0.1987,0.1969,0.1798,0.1863,0.1838,0.173,0.1695,0.1676,0.1646,0.1536,0.1515,0.1587,0.1432,0.1414,0.1371,0.1385,0.133,0.1324,0.1257,0.1259,0.1261,0.137,0,0,0,0,0,0,0.1994,0.1972,0.1971,0.1864,0.1836,0.1768,0.1696,0.1674,0.1637,0.1626,0.1521,0.1502,0.1429,0.138,0.1366,0.1377,0.132,0.1255,0.1258,0.126,0.1365,0.1376,0.1385,0,0,0,0,0,0.2002,0.2008,0.1972,0.1953,0.1832,0.1769,0.1753,0.167,0.1639,0.1636,0.1565,0.1505,0.1387,0.1377,0.1359,0.1369,0.1253,0.1257,0.126,0.136,0.1373,0.1385,0,0,0,0,0,0,0.2118,0.1992,0.1951,0.1922,0.1858,0.1748,0.1742,0.1687,0.1629,0.1621,0.152,0.1497,0.1465,0.1413,0.1404,0.1359,0.1312,0.1312,0.1395,0.1406,0.1417,0.1429,0.1315,0,0,0,0,0,0.2141,0.2102,0.1993,0.1978,0.1948,0.1851,0.182,0.1763,0.1691,0.1662,0.1588,0.152,0.1467,0.1434,0.1379,0.1357,0.1331,0.1355,0.1365,0.1374,0.1375,0.1357,0.1366,0.1272,0.1272,0.1272,0,0,0.2187,0.2113,0.2094,0.2,0.1943,0.1902,0.1829,0.179,0.1758,0.1656,0.1611,0.1555,0.1471,0.1439,0.142,0.1394,0.1395,0.1378,0.1386,0.1381,0.1361,0.137,0.1378,0.1275,0.1274,0.1274,0,0,0.2249,0.2191,0.2171,0.2116,0.2031,0.1966,0.1962,0.186,0.1819,0.1773,0.1695,0.1655,0.1567,0.151,0.147,0.1511,0.1453,0.1496,0.1549,0.1533,0.154,0.1546,0.1559,0.1565,0.1497,0.1498,0.1498,0,0.2316,0.2254,0.2168,0.2133,0.2093,0.2,0.1978,0.1928,0.183,0.1804,0.1776,0.1662,0.1599,0.1551,0.1562,0.1533,0.1523,0.1507,0.1547,0.1552,0.1556,0.1567,0.1572,0.1503,0.1503,0.1502,0.1501,0,0.2339,0.2297,0.2292,0.22,0.2159,0.2132,0.204,0.2009,0.1955,0.1893,0.1846,0.1768,0.1695,0.168,0.1626,0.1624,0.161,0.1566,0.1516,0.1572,0.1581,0.1584,0.1511,0.1509,0.1508,0.1506,0,0,0.2469,0.233,0.2329,0.2286,0.2185,0.215,0.2118,0.2048,0.2022,0.1958,0.1926,0.1854,0.1812,0.1767,0.1706,0.1692,0.1728,0.1649,0.1646,0.1665,0.1718,0.1751,0.1757,0.169,0.169,0.1691,0.1725,0,0.2514,0.2452,0.2373,0.2337,0.2296,0.2207,0.2178,0.2113,0.2054,0.201,0.1944,0.1893,0.1844,0.1815,0.1798,0.1728,0.1737,0.1724,0.1657,0.1656,0.168,0.1762,0.1796,0.1832,0.1728,0.1728,0.1728,0,0.2558,0.2499,0.2459,0.2361,0.2341,0.2317,0.2246,0.2205,0.2128,0.2086,0.2036,0.1971,0.193,0.1888,0.1829,0.1822,0.1791,0.1752,0.1751,0.174,0.1695,0.1751,0.1841,0.1846,0.1733,0.1733,0.1733,0,0.2654,0.2565,0.2528,0.2494,0.238,0.2365,0.2316,0.2238,0.2201,0.2139,0.2113,0.2047,0.201,0.1959,0.1877,0.1854,0.1827,0.1778,0.1789,0.1792,0.1786,0.1787,0.1871,0.177,0.1769,0.1769,0.1769,0,0.2712,0.269,0.257,0.2548,0.2521,0.243,0.2405,0.2348,0.228,0.2244,0.2163,0.2131,0.2025,0.198,0.1916,0.1876,0.1861,0.1824,0.1807,0.183,0.1835,0.1806,0.1801,0.1771,0.177,0.177,0.177,0,0.2814,0.2733,0.2687,0.2583,0.2557,0.2541,0.2451,0.2425,0.2362,0.2317,0.2302,0.2202,0.2145,0.2059,0.1975,0.1931,0.1901,0.1875,0.1928,0.1917,0.1933,0.1932,0.1999,0.2003,0.1902,0.1903,0.1904,0,0.2855,0.2836,0.2731,0.2701,0.2656,0.261,0.2571,0.2482,0.2445,0.2356,0.2341,0.2277,0.2221,0.2133,0.2053,0.1988,0.1958,0.1986,0.1947,0.1971,0.1956,0.1957,0.1954,0.1994,0.1996,0.1997,0.1998,0,0.2936,0.2896,0.2845,0.278,0.2737,0.2681,0.2621,0.2601,0.2498,0.246,0.2401,0.2358,0.2273,0.221,0.2135,0.2083,0.2023,0.2012,0.201,0.2033,0.2064,0.2045,0.1951,0.201,0.2009,0.2008,0.2007,0.2007,0.3006,0.2985,0.2908,0.2853,0.2799,0.2744,0.2715,0.2649,0.2598,0.2523,0.2473,0.2416,0.2339,0.2231,0.2182,0.2136,0.211,0.2109,0.2108,0.2109,0.2116,0.2074,0.2122,0.2121,0.2121,0.212,0.212,0,0.3081,0.3027,0.2978,0.2897,0.2854,0.2803,0.2734,0.2701,0.2652,0.2586,0.2533,0.2465,0.2403,0.2319,0.2251,0.223,0.22,0.2215,0.2214,0.2203,0.2144,0.2151,0.2239,0.2239,0.2239,0.2239,0.2239,0.2239,0.3115,0.3076,0.3028,0.2961,0.2907,0.2852,0.2816,0.2765,0.2711,0.2639,0.2588,0.2534,0.246,0.2386,0.2327,0.2303,0.2281,0.2304,0.2272,0.2218,0.2207,0.2197,0.2203,0.23,0.23,0.2334,0.2334,0.2335]},{"header":{"parameterUnit":"m.s-1","parameterCategory":1,"la1":30.2991,"la2":30.254,"lo1":-89.0895,"lo2":-89.0444,"dy":0.0017,"dx":0.0017,"nx":28,"ny":28,"refTime":"2023-10-17T03:00:00:Z","depth":0,"parameterNumber":3,"parameterNumberName":"V-component_of_WINDS"},"data":[0,0,0,0,0,0,0,0,0,0,0,0,0,0,0,0,0,0,0,0,0,0,0,0,0,0,0,0,0,0,0,0,0,0,0,0,0,0,0,0,0,0,0,0,0,0,0,0,0,0,0,0,0,0,0,0,0,0,-0.4719,-0.4719,0,-0.4695,-0.4695,-0.4695,-0.4716,-0.4717,-0.4718,-0.4718,-0.4693,-0.4692,-0.469,0,0,0,0,0,0,0,0,0,0,0,0,0,-0.4782,-0.4781,-0.4719,-0.4719,-0.4718,-0.4695,-0.4695,-0.4695,-0.4716,-0.4717,-0.4718,-0.4719,-0.4694,-0.4692,-0.469,0,0,0,0,0,0,0,0,0,0,0,0,0,-0.4756,-0.478,-0.4719,-0.4726,-0.4726,-0.4695,-0.4695,-0.4695,-0.4715,-0.4717,-0.4718,-0.4719,-0.4694,-0.4692,-0.469,-0.465,0,0,-0.4683,-0.4682,0,0,0,0,0,0,0,0,-0.4758,-0.4754,-0.4725,-0.4725,-0.4726,-0.471,-0.4708,-0.468,-0.4715,-0.472,-0.4718,-0.472,-0.4698,-0.4695,-0.4688,-0.4649,-0.4648,-0.4683,-0.4682,-0.4681,-0.468,0,0,0,0,0,0,0,-0.4759,-0.4755,-0.4709,-0.4725,-0.4725,-0.473,-0.4728,-0.4703,-0.4702,-0.4719,-0.4721,-0.4718,-0.4698,-0.469,-0.4687,-0.4648,-0.4683,-0.4681,-0.468,-0.4679,-0.4577,-0.4575,0,0,0,0,0,0,-0.4761,-0.4756,-0.471,-0.4709,-0.4745,-0.4728,-0.4726,-0.4714,-0.4702,-0.4701,-0.4717,-0.4719,-0.4693,-0.469,-0.4687,-0.464,-0.4681,-0.4679,-0.4677,-0.4578,-0.4576,-0.4575,0,0,0,0,0,0,-0.4762,-0.4756,-0.4711,-0.4733,-0.4728,-0.4726,-0.4712,-0.4713,-0.4704,-0.47,-0.47,-0.4709,-0.4694,-0.469,-0.466,-0.4639,-0.4678,-0.4676,-0.458,-0.4578,-0.4576,-0.4546,0,0,0,0,0,0,-0.4764,-0.4757,-0.4741,-0.4732,-0.4726,-0.4684,-0.4711,-0.4711,-0.4701,-0.4703,-0.4692,-0.4692,-0.4695,-0.4663,-0.4657,-0.4637,-0.4674,-0.4581,-0.4579,-0.4576,-0.4548,-0.4543,-0.4538,0,0,0,0,0,-0.4766,-0.4733,-0.474,-0.4735,-0.4707,-0.4683,-0.4679,-0.4684,-0.4699,-0.4684,-0.4681,-0.4692,-0.4643,-0.466,-0.4654,-0.4632,-0.4583,-0.458,-0.4576,-0.4551,-0.4544,-0.4538,0,0,0,0,0,0,-0.4738,-0.4732,-0.474,-0.4703,-0.4694,-0.4687,-0.4667,-0.4676,-0.4661,-0.4664,-0.467,-0.4668,-0.4636,-0.4631,-0.465,-0.4594,-0.4615,-0.4611,-0.4598,-0.4591,-0.4586,-0.4587,-0.4672,0,0,0,0,0,-0.4728,-0.4709,-0.4705,-0.4673,-0.4668,-0.4669,-0.4658,-0.4663,-0.4652,-0.4648,-0.4643,-0.4633,-0.4615,-0.4603,-0.4587,-0.4549,-0.4547,-0.4531,-0.4526,-0.4522,-0.4517,-0.4498,-0.4491,-0.4565,-0.4565,-0.4565,0,0,-0.4707,-0.4701,-0.4688,-0.4668,-0.4661,-0.4641,-0.4665,-0.4642,-0.4628,-0.4645,-0.4616,-0.4612,-0.4601,-0.4567,-0.4552,-0.4562,-0.4497,-0.4518,-0.4514,-0.4512,-0.4494,-0.4487,-0.4481,-0.4563,-0.4563,-0.4563,0,0,-0.4657,-0.4651,-0.4625,-0.4618,-0.4607,-0.4608,-0.4602,-0.4594,-0.4592,-0.4564,-0.4576,-0.4559,-0.4528,-0.452,-0.4512,-0.4462,-0.4472,-0.4457,-0.4429,-0.441,-0.4404,-0.4399,-0.4381,-0.4374,-0.4453,-0.4453,-0.4453,0,-0.4632,-0.4602,-0.461,-0.4587,-0.4578,-0.4593,-0.4567,-0.4559,-0.4544,-0.4537,-0.4549,-0.4512,-0.4506,-0.447,-0.4458,-0.4451,-0.4444,-0.4457,-0.4404,-0.4399,-0.4394,-0.4377,-0.4371,-0.4451,-0.4451,-0.4451,-0.4452,0,-0.4572,-0.4551,-0.4531,-0.4517,-0.4505,-0.4481,-0.4484,-0.4472,-0.4478,-0.4478,-0.445,-0.4443,-0.4426,-0.4418,-0.4423,-0.4384,-0.439,-0.4403,-0.4425,-0.4385,-0.437,-0.4363,-0.4448,-0.4449,-0.445,-0.445,0,0,-0.4502,-0.4493,-0.4486,-0.448,-0.4471,-0.4455,-0.4432,-0.4416,-0.4405,-0.4395,-0.4375,-0.435,-0.4363,-0.4353,-0.4358,-0.4342,-0.4303,-0.4357,-0.4357,-0.4346,-0.4259,-0.4248,-0.4241,-0.431,-0.4309,-0.4308,-0.426,0,-0.4452,-0.4411,-0.4418,-0.4379,-0.4361,-0.4377,-0.4357,-0.4349,-0.4349,-0.4333,-0.4333,-0.4315,-0.4333,-0.4328,-0.4312,-0.4311,-0.4285,-0.4315,-0.4292,-0.4291,-0.4293,-0.4232,-0.4221,-0.4175,-0.4253,-0.4252,-0.4252,0,-0.4387,-0.4375,-0.4334,-0.433,-0.4322,-0.4304,-0.429,-0.4276,-0.4268,-0.4269,-0.426,-0.4269,-0.4246,-0.4269,-0.4238,-0.4258,-0.4249,-0.4247,-0.4246,-0.4242,-0.4268,-0.4227,-0.4161,-0.4154,-0.4242,-0.4243,-0.4243,0,-0.4339,-0.4314,-0.4286,-0.4281,-0.4274,-0.4261,-0.4258,-0.4252,-0.4242,-0.4231,-0.4225,-0.421,-0.4202,-0.4191,-0.4196,-0.4213,-0.4164,-0.4188,-0.4164,-0.4164,-0.4152,-0.4152,-0.4083,-0.4148,-0.4148,-0.4148,-0.4149,0,-0.4282,-0.4256,-0.4265,-0.4248,-0.422,-0.4229,-0.4201,-0.42,-0.4194,-0.4177,-0.4191,-0.4175,-0.4183,-0.4167,-0.4171,-0.4145,-0.4141,-0.4142,-0.4143,-0.414,-0.414,-0.4133,-0.4136,-0.4147,-0.4147,-0.4147,-0.4148,0,-0.4223,-0.4228,-0.4199,-0.4196,-0.4195,-0.4175,-0.4173,-0.4157,-0.4159,-0.4137,-0.4133,-0.4136,-0.4119,-0.4123,-0.4104,-0.4107,-0.4074,-0.4079,-0.4076,-0.4077,-0.4053,-0.4055,-0.3976,-0.3966,-0.4039,-0.4038,-0.4038,0,-0.4185,-0.4166,-0.4162,-0.4152,-0.4148,-0.4132,-0.4123,-0.4132,-0.4122,-0.4113,-0.4098,-0.4082,-0.407,-0.4042,-0.4042,-0.4028,-0.4033,-0.4006,-0.4031,-0.4029,-0.4032,-0.4033,-0.4031,-0.4001,-0.4,-0.3999,-0.3999,0,-0.4118,-0.4122,-0.4108,-0.4096,-0.4085,-0.4076,-0.4067,-0.4059,-0.4067,-0.4055,-0.4038,-0.4029,-0.4011,-0.3995,-0.3982,-0.3979,-0.399,-0.3992,-0.3985,-0.3981,-0.398,-0.398,-0.4062,-0.3993,-0.3993,-0.3994,-0.3994,-0.3994,-0.4068,-0.4052,-0.4047,-0.4032,-0.4027,-0.402,-0.4005,-0.4007,-0.3993,-0.3979,-0.3985,-0.3966,-0.396,-0.3945,-0.394,-0.3925,-0.3935,-0.3926,-0.3924,-0.3921,-0.3918,-0.3984,-0.3923,-0.3923,-0.3924,-0.3924,-0.3924,0,-0.4,-0.3999,-0.3985,-0.3974,-0.3962,-0.3976,-0.3968,-0.3957,-0.394,-0.3934,-0.3923,-0.3904,-0.3889,-0.389,-0.3876,-0.3864,-0.3869,-0.386,-0.386,-0.386,-0.391,-0.3917,-0.3857,-0.3857,-0.3857,-0.3857,-0.3857,-0.3857,-0.3964,-0.3938,-0.3942,-0.3914,-0.3913,-0.3894,-0.3889,-0.3882,-0.3878,-0.3857,-0.3845,-0.3846,-0.3842,-0.3829,-0.3817,-0.3817,-0.3811,-0.38,-0.3803,-0.3849,-0.3856,-0.3862,-0.3868,-0.3799,-0.3799,-0.3753,-0.3753,-0.3753]}]]